This is the latest recevied weather packets stored in our database for station/object KI7JYE. If no packets are shown the sender has not sent any weather packets the latest 10 day(s).
| Time | Temp. | Humidity | Pressure | Rain* | Wind** | Luminosity | Snow |
|---|---|---|---|---|---|---|---|
| 1777628259 | 11.11° C | 86% | 1014.2 hPa | 0 mm | - | 0 W/m² | - |
| 1777627955 | 11.67° C | 86% | 1014.3 hPa | 0 mm | - | 0 W/m² | - |
| 1777627649 | 11.67° C | 86% | 1014.3 hPa | 0 mm | - | 0 W/m² | - |
| 1777627348 | 11.67° C | 86% | 1014.3 hPa | 0 mm | - | 0 W/m² | - |
| 1777627046 | 11.67° C | 85% | 1014.2 hPa | 0 mm | - | 0 W/m² | - |
| 1777626742 | 11.67° C | 85% | 1014.3 hPa | 0 mm | - | 0 W/m² | - |
| 1777626438 | 11.67° C | 84% | 1014.4 hPa | 0 mm | - | 0 W/m² | - |
| 1777626137 | 11.67° C | 84% | 1014.5 hPa | 0 mm | - | 0 W/m² | - |
| 1777625831 | 11.67° C | 84% | 1014.2 hPa | 0 mm | - | 0 W/m² | - |
| 1777625528 | 11.67° C | 83% | 1014.3 hPa | 0 mm | - | 0 W/m² | - |
| 1777625223 | 12.22° C | 82% | 1014.1 hPa | 0 mm | - | 0 W/m² | - |
| 1777624920 | 12.78° C | 81% | 1014.3 hPa | 0 mm | - | 0 W/m² | - |
| 1777624616 | 12.78° C | 80% | 1014.2 hPa | 0 mm | - | 0 W/m² | - |
| 1777624316 | 13.33° C | 79% | 1014.1 hPa | 0 mm | - | 0 W/m² | - |
| 1777624015 | 13.33° C | 79% | 1014.2 hPa | 0 mm | - | 0 W/m² | - |
| 1777623712 | 13.89° C | 78% | 1014.2 hPa | 0 mm | - | 0 W/m² | - |
| 1777623409 | 13.89° C | 77% | 1014 hPa | 0 mm | - | 0 W/m² | - |
| 1777623105 | 14.44° C | 76% | 1014 hPa | 0 mm | - | 0 W/m² | - |
| 1777622802 | 14.44° C | 74% | 1014.1 hPa | 0 mm | - | 0 W/m² | - |
| 1777622499 | 15° C | 72% | 1014 hPa | 0 mm | - | 0 W/m² | - |
| 1777622195 | 15° C | 70% | 1014 hPa | 0 mm | - | 0 W/m² | - |
| 1777621891 | 15° C | 69% | 1013.8 hPa | 0 mm | - | 0 W/m² | - |
| 1777621587 | 15.56° C | 65% | 1013.9 hPa | 0 mm | - | 0 W/m² | - |
| 1777621284 | 16.11° C | 62% | 1013.9 hPa | 0 mm | - | 0 W/m² | - |
| 1777620981 | 15.56° C | 61% | 1014.1 hPa | 0 mm | - | 0 W/m² | - |
* Rain latest hour (hover to see other rain measurements)
** Current wind speed in m/s (hover to see current wind gust speed)